• In Deutschland
  • Länderverzeichnis
  • Für 7 Tage
  • Wassertemperatur
  • Satellitenkarten
  • Wetterkarte
  • Widgets
  • user-avatar
    Anmelden

    Stündliche Wetter Hangzhou

    Heute, 23 November, Donnerstag

    Zeit Temperatur Niederschläge Wind Luftdruck Luftfeuchtigkeit
    00:00 +9°C° 0 mm 2 m/S 768 mmHg 68%
    01:00 +8°C° 0 mm 2 m/S 768 mmHg 68%
    02:00 +8°C° 0 mm 1 m/S 768 mmHg 71%
    03:00 +8°C° 0 mm 1 m/S 769 mmHg 70%
    04:00 +7°C° 0 mm 2 m/S 769 mmHg 69%
    05:00 +6°C° 0 mm 2 m/S 769 mmHg 67%
    06:00 +7°C° 0 mm 2 m/S 769 mmHg 64%
    07:00 +8°C° 0 mm 1 m/S 770 mmHg 62%
    08:00 +9°C° 0 mm 1 m/S 770 mmHg 59%
    09:00 +9°C° 0 mm 2 m/S 770 mmHg 50%
    10:00 +12°C° 0 mm 2 m/S 770 mmHg 41%
    11:00 +13°C° 0 mm 2 m/S 770 mmHg 32%
    12:00 +14°C° 0 mm 2 m/S 769 mmHg 30%
    13:00 +14°C° 0 mm 2 m/S 768 mmHg 29%
    14:00 +15°C° 0 mm 1 m/S 767 mmHg 29%
    15:00 +14°C° 0 mm 1 m/S 768 mmHg 33%
    16:00 +12°C° 0 mm 1 m/S 768 mmHg 37%
    17:00 +11°C° 0 mm 1 m/S 768 mmHg 40%
    18:00 +11°C° 0 mm 1 m/S 768 mmHg 42%
    19:00 +10°C° 0 mm 1 m/S 768 mmHg 44%
    20:00 +8°C° 0 mm 0 m/S 769 mmHg 46%
    21:00 +8°C° 0 mm 0 m/S 769 mmHg 47%
    22:00 +9°C° 0 mm 1 m/S 769 mmHg 48%
    23:00 +8°C° 0 mm 1 m/S 770 mmHg 49%

    Morgen, 24 November, Freitag

    Zeit Temperatur Niederschläge Wind Luftdruck Luftfeuchtigkeit
    00:00 +8°C° 0 mm 1 m/S 770 mmHg 50%
    01:00 +8°C° 0 mm 1 m/S 770 mmHg 50%
    02:00 +8°C° 0 mm 1 m/S 770 mmHg 51%
    03:00 +8°C° 0 mm 1 m/S 770 mmHg 51%
    04:00 +7°C° 0 mm 1 m/S 770 mmHg 51%
    05:00 +7°C° 0 mm 1 m/S 770 mmHg 52%
    06:00 +8°C° 0 mm 1 m/S 770 mmHg 51%
    07:00 +9°C° 0 mm 1 m/S 770 mmHg 50%
    08:00 +9°C° 0 mm 1 m/S 770 mmHg 49%
    09:00 +11°C° 0 mm 1 m/S 770 mmHg 43%
    10:00 +14°C° 0 mm 1 m/S 771 mmHg 37%
    11:00 +16°C° 0 mm 1 m/S 771 mmHg 31%
    12:00 +16°C° 0 mm 1 m/S 770 mmHg 30%
    13:00 +16°C° 0 mm 2 m/S 770 mmHg 29%
    14:00 +17°C° 0 mm 2 m/S 769 mmHg 28%
    15:00 +15°C° 0 mm 2 m/S 769 mmHg 32%
    16:00 +14°C° 0 mm 2 m/S 769 mmHg 37%
    17:00 +13°C° 0 mm 1 m/S 769 mmHg 42%
    18:00 +12°C° 0 mm 1 m/S 770 mmHg 43%
    19:00 +12°C° 0 mm 1 m/S 770 mmHg 45%
    20:00 +11°C° 0 mm 1 m/S 770 mmHg 47%
    21:00 +11°C° 0 mm 1 m/S 770 mmHg 48%
    22:00 +11°C° 0 mm 1 m/S 770 mmHg 48%
    23:00 +10°C° 0 mm 0 m/S 770 mmHg 49%

    übermorgen, 25 November, Samstag

    Zeit Temperatur Niederschläge Wind Luftdruck Luftfeuchtigkeit
    00:00 +10°C° 0 mm 0 m/S 770 mmHg 50%
    01:00 +9°C° 0 mm 0 m/S 770 mmHg 51%
    02:00 +9°C° 0 mm 0 m/S 769 mmHg 51%
    03:00 +9°C° 0 mm 0 m/S 769 mmHg 52%
    04:00 +9°C° 0 mm 0 m/S 769 mmHg 53%
    05:00 +9°C° 0 mm 0 m/S 768 mmHg 54%
    06:00 +10°C° 0 mm 1 m/S 769 mmHg 54%
    07:00 +11°C° 0 mm 1 m/S 769 mmHg 55%
    08:00 +11°C° 0 mm 1 m/S 769 mmHg 56%
    09:00 +12°C° 0 mm 1 m/S 769 mmHg 51%
    10:00 +14°C° 0 mm 1 m/S 769 mmHg 46%
    11:00 +15°C° 0 mm 1 m/S 769 mmHg 41%
    12:00 +15°C° 0 mm 1 m/S 768 mmHg 40%
    13:00 +16°C° 0 mm 1 m/S 768 mmHg 40%
    14:00 +16°C° 0 mm 1 m/S 767 mmHg 39%
    15:00 +16°C° 0 mm 1 m/S 767 mmHg 43%
    16:00 +15°C° 0 mm 1 m/S 767 mmHg 47%
    17:00 +14°C° 0 mm 1 m/S 767 mmHg 51%
    18:00 +14°C° 0 mm 1 m/S 767 mmHg 53%
    19:00 +14°C° 0 mm 1 m/S 767 mmHg 55%
    20:00 +13°C° 0 mm 1 m/S 768 mmHg 57%
    21:00 +13°C° 0 mm 1 m/S 768 mmHg 59%
    22:00 +13°C° 0 mm 1 m/S 768 mmHg 61%
    23:00 +12°C° 0 mm 1 m/S 768 mmHg 64%

    26 November, Sonntag

    Zeit Temperatur Niederschläge Wind Luftdruck Luftfeuchtigkeit
    00:00 +12°C° 0 mm 1 m/S 768 mmHg 64%
    01:00 +12°C° 0 mm 1 m/S 768 mmHg 65%
    02:00 +11°C° 0 mm 1 m/S 768 mmHg 66%
    03:00 +11°C° 0 mm 1 m/S 768 mmHg 66%
    04:00 +11°C° 0 mm 1 m/S 767 mmHg 66%
    05:00 +10°C° 0 mm 1 m/S 767 mmHg 66%
    06:00 +11°C° 0 mm 1 m/S 768 mmHg 64%
    07:00 +12°C° 0 mm 1 m/S 768 mmHg 62%
    08:00 +12°C° 0 mm 1 m/S 769 mmHg 60%
    09:00 +14°C° 0 mm 1 m/S 769 mmHg 53%
    10:00 +16°C° 0 mm 1 m/S 769 mmHg 46%
    11:00 +19°C° 0 mm 1 m/S 769 mmHg 38%
    12:00 +18°C° 0 mm 2 m/S 768 mmHg 37%
    13:00 +18°C° 0 mm 2 m/S 768 mmHg 36%
    14:00 +19°C° 0 mm 3 m/S 767 mmHg 35%
    15:00 +17°C° 0 mm 2 m/S 767 mmHg 41%
    16:00 +16°C° 0 mm 2 m/S 767 mmHg 46%
    17:00 +15°C° 0 mm 2 m/S 767 mmHg 51%
    18:00 +14°C° 0 mm 2 m/S 768 mmHg 53%
    19:00 +13°C° 0 mm 2 m/S 769 mmHg 55%
    20:00 +13°C° 0 mm 2 m/S 769 mmHg 56%
    21:00 +12°C° 0 mm 2 m/S 769 mmHg 62%
    22:00 +12°C° 0 mm 2 m/S 769 mmHg 67%
    23:00 +10°C° 0 mm 2 m/S 769 mmHg 73%

    27 November, Montag

    Zeit Temperatur Niederschläge Wind Luftdruck Luftfeuchtigkeit
    00:00 +10°C° 0 mm 2 m/S 769 mmHg 76%
    01:00 +11°C° 0 mm 1 m/S 768 mmHg 79%
    02:00 +10°C° 0 mm 1 m/S 768 mmHg 82%
    03:00 +10°C° 0 mm 1 m/S 768 mmHg 83%
    04:00 +10°C° 0 mm 1 m/S 768 mmHg 84%
    05:00 +10°C° 0 mm 1 m/S 767 mmHg 86%
    06:00 +11°C° 0 mm 1 m/S 767 mmHg 84%
    07:00 +12°C° 0 mm 1 m/S 768 mmHg 82%
    08:00 +12°C° 0 mm 1 m/S 768 mmHg 80%
    09:00 +14°C° 0 mm 2 m/S 767 mmHg 74%
    10:00 +15°C° 0 mm 2 m/S 767 mmHg 68%
    11:00 +17°C° 0 mm 3 m/S 767 mmHg 62%
    12:00 +17°C° 0 mm 3 m/S 766 mmHg 60%
    13:00 +18°C° 0 mm 3 m/S 765 mmHg 58%
    14:00 +19°C° 0 mm 3 m/S 764 mmHg 55%
    15:00 +18°C° 0 mm 3 m/S 764 mmHg 61%
    16:00 +17°C° 0 mm 3 m/S 764 mmHg 67%
    17:00 +16°C° 0 mm 3 m/S 764 mmHg 72%
    18:00 +15°C° 0 mm 2 m/S 764 mmHg 76%
    19:00 +15°C° 0 mm 2 m/S 764 mmHg 80%
    20:00 +14°C° 0 mm 2 m/S 764 mmHg 84%
    21:00 +14°C° 0 mm 2 m/S 764 mmHg 86%
    22:00 +14°C° 0 mm 2 m/S 764 mmHg 88%
    23:00 +13°C° 0 mm 1 m/S 764 mmHg 90%

    28 November, Dienstag

    Zeit Temperatur Niederschläge Wind Luftdruck Luftfeuchtigkeit
    00:00 +13°C° 0 mm 1 m/S 764 mmHg 90%
    01:00 +13°C° 0 mm 1 m/S 763 mmHg 91%
    02:00 +13°C° 0 mm 1 m/S 763 mmHg 91%
    03:00 +13°C° 0 mm 1 m/S 763 mmHg 91%
    04:00 +13°C° 0 mm 1 m/S 763 mmHg 91%
    05:00 +13°C° 0 mm 1 m/S 763 mmHg 91%
    06:00 +13°C° 0 mm 1 m/S 763 mmHg 88%
    07:00 +14°C° 0 mm 1 m/S 763 mmHg 85%
    08:00 +15°C° 0 mm 1 m/S 764 mmHg 83%
    09:00 +16°C° 0,1 mm 1 m/S 764 mmHg 78%
    10:00 +18°C° 0,1 mm 1 m/S 764 mmHg 73%
    11:00 +20°C° 0,1 mm 1 m/S 764 mmHg 69%
    12:00 +19°C° 0 mm 1 m/S 764 mmHg 70%
    13:00 +19°C° 0 mm 1 m/S 763 mmHg 72%
    14:00 +18°C° 0 mm 1 m/S 763 mmHg 74%
    15:00 +18°C° 0,1 mm 1 m/S 763 mmHg 77%
    16:00 +16°C° 0,1 mm 1 m/S 764 mmHg 80%
    17:00 +16°C° 0,1 mm 1 m/S 764 mmHg 83%
    18:00 +15°C° 0 mm 1 m/S 764 mmHg 85%
    19:00 +14°C° 0 mm 1 m/S 765 mmHg 87%
    20:00 +14°C° 0 mm 1 m/S 765 mmHg 88%
    21:00 +14°C° 0 mm 1 m/S 765 mmHg 89%
    22:00 +14°C° 0 mm 1 m/S 765 mmHg 90%
    23:00 +13°C° 0 mm 1 m/S 765 mmHg 91%
    Mehr zeigen